Starlink 3853

operational
NORAD ID: 52359 Int'l Des: 2022-045 Owner: SPXS Country: US Constellation: starlink
LEOCIRCULAR

Über Starlink 3853

Beschreibung wird geladen...

Live-Position

3D-Globus wird geladen...

Nächste Überflüge

Höhenverlauf

Altitude vs Time

uPlot chart will show altitude changes over time

Zweizeiliger Elementsatz

1 52359U 22045AE 25258.73881728 .00001355 00000-0 10322-3 0 9998
2 52359 53.2149 264.5167 0001081 97.9119 262.1996 15.08839632189375
Epoch: 15. Sept. 2025 • Age: 16 hours

Aktueller Status

Höhe 553.9 km
Geschwindigkeit 7.58 km/s
Subsatellitenpunkt -40.66°S, 85.47°E
Startdatum 29. Apr. 2022
Alter 3.3 years
Typ internet

Technische Details

Klassifizierung Payload
Masse 297.00 kg
Trockenmasse 275.00 kg
Gesamtmasse 297.00 kg
Länge 0.20 m
Durchmesser 2.80 m
Spannweite 9.00 m
Form Box + pan
Hersteller SPXS
Bus-Typ Starlink
Phasenstatus In Orbit
Besitzer/Staat SPXS/US

Große Konstellationen

Loading constellations...